Regional Weather Roundup
Issued by NWS Charleston, WV

Home | Current Version | Previous Version | Graphics & Text | Print | Product List | Glossary On
Versions: 1 2 3 4 5 6 7 8 9 10 11 12 13 14 15 16 17 18 19 20 21 22 23 24 25 26 27 28 29 30 31 32 33 34 35 36 37 38 39 40 41 42 43 44 45 46 47 48 49 50
000
ASUS41 KRLX 012310
RWRRLX
West Virginia Regional Weather Roundup
National Weather Service Charleston WV
700 PM EDT WED JUL 01 2015

Note: "fair" indicates few or no clouds below 12,000 feet with no
significant weather and/or obstructions to visibility.

WVZ003-020000-
Northern Panhandle of West Virginia

CITY           SKY/WX    TMP DP  RH WIND       PRES   REMARKS
WHEELING       MOSUNNY   74  58  57 W7        29.91R
$$

WVZ009-020000-
Northwest West Virginia

CITY           SKY/WX    TMP DP  RH WIND       PRES   REMARKS
PARKERSBURG    NOT AVBL
$$

WVZ006-020000-
Western West Virginia

CITY           SKY/WX    TMP DP  RH WIND       PRES   REMARKS
HUNTINGTON     PTSUNNY   77  65  66 CALM      29.90F
$$

WVZ015-020000-
West Central West Virginia

CITY           SKY/WX    TMP DP  RH WIND       PRES   REMARKS
CHARLESTON     LGT RAIN  77  65  66 W3        29.91S
$$

WVZ022-031-020000-
North Central West Virginia

CITY           SKY/WX    TMP DP  RH WIND       PRES   REMARKS
CLARKSBURG     SUNNY     75  59  57 W6        29.91S
MORGANTOWN     MOSUNNY   78  55  44 W6        29.92R
$$

WVZ025-035-042-045-020000-
Southern West Virginia

CITY           SKY/WX    TMP DP  RH WIND       PRES   REMARKS
BECKLEY        PTSUNNY   73  60  63 NW5       29.98S
LOGAN          CLOUDY    73  66  78 CALM      29.91F
BLUEFIELD      CLOUDY    73  62  68 W8        30.02S
LEWISBURG      MOSUNNY   77  60  55 W3        29.98R
$$

WVZ047-020000-
Northern Mountains of West Virginia

CITY           SKY/WX    TMP DP  RH WIND       PRES   REMARKS
ELKINS         SUNNY     74  56  53 W12       29.96R
$$

WVZ052-020000-
Eastern Panhandle of West Virginia

CITY           SKY/WX    TMP DP  RH WIND       PRES   REMARKS
MARTINSBURG    SUNNY     80  60  50 NW8       29.87S
PETERSBURG     SUNNY     80  55  42 W6        29.89S
$$



USA.gov is the U.S. government's official web portal to all federal, state and local government web resources and services.